Погода в Григорьевке

Россия / Челябинская область     56°09′34″N   60°56′30″E
темп.,
°C
ветер,
м/с
пор.,
м/с
влажн.,
%
обл.,
%
осадки,
мм/ч
давл.,
гПа
погр.,
м
21 апреля, ср
ср2123:00+2зсз39660 0.0 1031172
02:000зсз35760 0.0 103191
05:000зсз26780 0.0 1032109
08:00+4сз34600 0.0 1032259
11:00+9сз22450 0.0 1032975
14:00+13ссв11340 0.0 10321354
17:00+13вюв11320 0.0 10321569
20:00+9юв224993 0.0 103237
22 апреля, чт
чт2223:00+6ю23615 0.0 103345
02:00+4ю246610 0.0 103370
05:00+3ю36685 0.0 1034103
08:00+7ю3854100 0.0 1034275
11:00+10ю6941100 0.0 1034853
14:00+13ю7934100 0.0 10331426
17:00+12ю5840100 0.0 10331528
20:00+8ююз3954100 0.0 1033279
23 апреля, пт
пт2323:00+6ююз3961100 0.0 1033221
02:00+6ю2763100 0.0 1032177
05:00+5ююз4967100 0.0 1033289
08:00+7ююз4968100 0.0 1033950
11:00+8ю597199 0.1 10321109
14:00+10ю4866100 0.3 10311314
17:00+11юз356185 0.4 10311007
20:00+9юв2372100 0.1 103051
24 апреля, сб
сб2423:00+8юв2277100 0.1 102942
02:00+8ююв2474100 0.0 102791
05:00+7ююв3880100 0.1 1026312
08:00+7ююв5891100 1.0 10251101
11:00+7ююв4885100 1.9 1025740
14:00+11юв5956100 0.3 10221655
17:00+11ююв61041100 0.3 10211771
20:00+8юв61148100 0.0 1020944
25 апреля, вс
вс2523:00+6юв5961100 0.0 1019707
02:00+4юв4881100 0.0 1018529
05:00+4вюв3790100 0.2 1017421
08:00+6вюв3675100 0.0 1016498
11:00+10ююв465095 0.0 10141110
14:00+10ююз555779 0.0 10141322
17:00+11зюз475768 0.0 10151269
20:00+9зюз487299 0.0 10151012